Location: Unspecified
(0.0000°N, 0.0000°E)
Time: 20:23:08
(UTC+00:00)

Envisat - Visible Passes

Search period start: 22 November 2017 00:00
Search period end: 02 December 2017 00:00
Orbit: 764 x 766 km, 98.2° (Epoch: 22 November)

Date Brightness Start Highest point End Pass type
(mag) Time Alt. Az. Time Alt. Az. Time Alt. Az.
24 Nov 5.7 20:21:39 10° S 20:21:43 10° S 20:21:43 10° S visible
26 Nov 5.9 20:47:50 10° SSW 20:47:52 10° SSW 20:47:52 10° SSW visible
27 Nov 5.5 20:10:29 10° S 20:10:49 12° S 20:10:49 12° S visible
29 Nov 5.6 20:36:23 10° S 20:36:57 13° SSW 20:36:57 13° SSW visible
30 Nov 5.3 19:59:25 10° SSE 19:59:54 13° SSE 19:59:54 13° SSE visible
